Simultaneous Nadir Overpasses (SNOs) Predictions

Prediction of SNOs between GOES-16 and METOP-C Satellite Orbit:

Table of predicted SNOs for the next 14.0 days since TLE Epoch: 11/28/2020
Index Date Time (GOES-16) GOES-16 Lat,Lon METOP-C Lat,Lon Distance(km) Time Diff (sec)
1 11/29/2020 14:36:23 0.01, -75.21 0.31, -76.47 143.65 80
2 11/30/2020 14:18:24 0.00, -75.22 -0.83, -71.48 426.30 80
3 12/02/2020 02:37:25 0.00, -75.20 -0.20, -76.07 99.51 80
4 12/03/2020 02:14:06 0.01, -75.21 0.94, -71.08 470.50 80
5 12/04/2020 14:33:00 -0.01, -75.26 0.07, -75.65 44.02 80
6 12/07/2020 02:34:01 0.00, -75.26 0.03, -75.25 3.19 80
7 12/09/2020 14:32:15 -0.01, -75.34 -0.12, -74.82 58.83 80
8 12/11/2020 02:51:15 0.01, -75.33 -0.92, -79.41 465.10 80
9 12/12/2020 02:27:57 0.01, -75.35 0.22, -74.42 106.03 80
